Simultaneous Nadir Overpasses (SNOs) Predictions

Prediction of SNOs between NOAA-19 and TERRA Satellite Orbit:

Table of predicted SNOs for the next 14.0 days since TLE Epoch: 8/14/2021
Index Date (NOAA-19) Time (NOAA-19) Lat,Lon (NOAA-19) SZA (NOAA-19 ) Date (TERRA) Time (TERRA) Lat,Lon (TERRA) SZA (TERRA ) Distance(km) Time Diff (sec)
1 08/15/2021 05:17:29 80.37, 134.76 67.98 08/15/2021 05:17:28 80.38, 134.75 67.98 0.44 1
2 08/17/2021 10:50:41 -80.37,-128.51 111.30 08/17/2021 10:51:10 -80.38,-128.68 111.31 3.10 29
3 08/17/2021 11:41:36 80.36, 39.06 68.73 08/17/2021 11:40:36 80.38, 38.99 68.72 2.68 60
4 08/19/2021 16:23:45 80.39, -31.92 69.43 08/19/2021 16:24:51 80.38, -32.06 69.44 2.65 66
5 08/19/2021 17:14:48 -80.37, 135.67 110.54 08/19/2021 17:14:18 -80.38, 135.57 110.55 2.34 30
6 08/21/2021 22:47:53 80.39,-127.97 70.20 08/21/2021 22:47:59 80.38,-127.84 70.20 2.67 6
7 08/24/2021 04:21:04 -80.40, -31.31 109.04 08/24/2021 04:21:41 -80.38, -31.26 109.03 1.98 37
8 08/24/2021 05:12:00 80.38, 136.30 71.00 08/24/2021 05:11:07 80.38, 136.35 70.98 1.05 53
9 08/26/2021 09:54:08 80.39, 65.62 71.76 08/26/2021 09:55:21 80.41, 65.56 71.80 2.16 73



Historial Predications of SNOs between NOAA-19 and TERRA
